Location: Newark
(51.2625°N, 13.3939°E)
Time: 13:49:32
(UTC+00:00)

Vanguard 2 - Visible Passes

Search period start: 14 November 2019 00:00
Search period end: 24 November 2019 00:00
Orbit: 554 x 2937 km, 32.9° (Epoch: 13 November)

Date Brightness Start Highest point End Pass type
(mag) Time Alt. Az. Time Alt. Az. Time Alt. Az.
21 Nov 11.8 04:55:30 10° SSE 04:56:32 10° SSE 04:57:35 10° SSE visible
22 Nov 11.6 05:08:29 10° S 05:14:11 14° SSE 05:18:55 10° SE visible
23 Nov 11.4 05:24:05 10° SSW 05:31:49 18° SSE 05:37:49 10° SE visible
